{"data":{"norad_id":43581,"intl_designator":"2018-062A","name":"BEIDOU-3 M5 (C23)","alt_names":[],"object_type":"PAYLOAD","status":"ACTIVE","operator":null,"country":"PRC","launch_date":"2018-07-29","launch_site_code":"XICLF","launch_vehicle":null,"mission":null,"orbit_class":"UNKNOWN","rcs_meters":null,"size_class":null,"mass_kg":null,"dimensions":null,"purposes":["nav"],"wikipedia_slug":null,"has_3d_model":false,"image_url":null,"decayed_at":null,"tle_current":{"epoch":"2026-09-19T01:47:07.417824Z","epoch_age_seconds":137645,"freshness":"FRESH","line1":"1 43581U 18062A   26262.07439141 -.00000025  00000+0  00000+0 0  9991","line2":"2 43581  54.0825 179.1139 0003909 314.9426  45.0471  1.86229013 55382","mean_motion":1.86229013,"eccentricity":0.0003909,"inclination_deg":54.0825,"raan_deg":179.1139,"arg_perigee_deg":314.9426,"mean_anomaly_deg":45.0471,"bstar":0,"rev_number":5538,"period_min":773.24149272058,"perigee_km":21517.3414565,"apogee_km":21539.158669906,"semimajor_km":27906.387063203,"source":"CELESTRAK","updated_at":"2026-09-20T09:00:46.708510Z"}}}